Home > Weather > Dickinson > Past weeks

Flag for USA Past Weather in Dickinson, North Dakota, USA — Yesterday and Last 2 Weeks

Now
52 °F

Sunny.


Feels Like: 49 °F
Forecast: 55 / 83 °F
Wind: 8 mph from West

Location: Dickinson Municipal Airport

Current Time: Jul 24, 2016 at 6:56:21 AM

Latest Report: Jul 24, 2016 at 5:56 AM


Visibility: 10 mi

Pressure: 30.02 "Hg (27.48 "Hg at 735m altitude)

Humidity: 89%

Dew Point: 49 °F

Location of DickinsonLocation

Past Weather in Dickinson — Graph

°F

Dickinson Temperature Yesterday

Maximum temperature yesterday: 81 °F (at 2:56 PM)
Minimum temperature yesterday: 56 °F (at 11:56 PM)
Average temperature yesterday: 69 °F

High & Low Weather Summary for the Past Weeks

 TemperatureHumidityPressure
High97 °F (Jul 20, 3:56 PM)100% (Jul 15, 3:56 AM)30.14 "Hg (Jul 15, 3:56 AM)
Low45 °F (Jul 15, 4:01 AM)24% (Jul 21, 3:56 PM)29.55 "Hg (Jul 10, 2:56 PM)
Average69 °F65%29.86 "Hg
* Reported Jul 9 4:56 AM — Jul 24 4:56 AM, Dickinson, Weather by CustomWeather, © 2016

Note: Actual official high and low records may vary slightly from our data, if they occured in-between our weather recording intervals... More about our weather records

Advertising

Dickinson Weather History for the Previous 24 Hours

Scroll right to see more
 ConditionsComfort  
Time TempWeatherWind HumidityBarometerVisibility
4:56 AM
Sun, Jul 24
51 °FClear.6 mph89%30.00 "Hg10 mi
3:56 AM52 °FClear.6 mph89%30.00 "Hg10 mi
2:56 AM53 °FClear.8 mph86%30.00 "Hg10 mi
1:56 AM55 °FClear.9 mph83%29.98 "Hg10 mi
12:56 AM55 °FClear.9 mph87%29.98 "Hg10 mi
11:56 PM
Sat, Jul 23
56 °FClear.9 mph84%29.97 "Hg10 mi
10:56 PM59 °FClear.7 mph78%29.95 "Hg10 mi
9:56 PM61 °FClear.7 mph72%29.94 "Hg10 mi
8:56 PM67 °FClear.8 mph57%29.90 "Hg10 mi
7:56 PM73 °FSunny.14 mph43%29.87 "Hg10 mi
6:56 PM77 °FSunny.17 mph35%29.84 "Hg10 mi
5:56 PM79 °FSunny.17 mph29%29.82 "Hg10 mi
4:56 PM80 °FSunny.20 mph30%29.81 "Hg10 mi
3:56 PM81 °FSunny.22 mph27%29.81 "Hg10 mi
2:56 PM81 °FSunny.21 mph29%29.82 "Hg10 mi
1:56 PM80 °FSunny.17 mph29%29.82 "Hg10 mi
12:56 PM78 °FSunny.16 mph36%29.83 "Hg10 mi
11:56 AM77 °FSunny.23 mph40%29.82 "Hg10 mi
10:56 AM75 °FPassing clouds.18 mph54%29.81 "Hg10 mi
9:56 AM70 °FPassing clouds.9 mph76%29.81 "Hg10 mi
8:56 AM66 °FOvercast.7 mph87%29.81 "Hg10 mi
7:56 AM66 °FPartly sunny.7 mph84%29.79 "Hg10 mi
6:56 AM65 °FScattered clouds.6 mph87%29.75 "Hg10 mi
Weather by CustomWeather, © 2016

See weather overviewHow to use our weather pages